This is the latest recevied weather packets stored in our database for station/object JQ1YUX-13. If no packets are shown the sender has not sent any weather packets the latest 10 day(s).
| Time | Temp. | Humidity | Pressure | Rain* | Wind** | Luminosity | Snow |
|---|---|---|---|---|---|---|---|
| 1777718585 | 22.78° C | 52% | 1009 hPa | 0 mm | - | - | - |
| 1777717685 | 22.78° C | 53% | 1008.8 hPa | 0 mm | - | - | - |
| 1777716786 | 23.33° C | 50% | 1008.7 hPa | 0 mm | - | - | - |
| 1777715886 | 23.89° C | 49% | 1008.6 hPa | 0 mm | - | - | - |
| 1777714985 | 23.89° C | 45% | 1008.4 hPa | 0 mm | - | - | - |
| 1777714086 | 23.89° C | 45% | 1008.1 hPa | 0 mm | - | - | - |
| 1777713184 | 23.89° C | 46% | 1007.9 hPa | 0 mm | - | - | - |
| 1777712285 | 24.44° C | 49% | 1007.7 hPa | 0 mm | - | - | - |
| 1777711385 | 24.44° C | 47% | 1007.6 hPa | 0 mm | - | - | - |
| 1777710486 | 25° C | 53% | 1007.6 hPa | 0 mm | - | - | - |
| 1777709585 | 25.56° C | 46% | 1007.2 hPa | 0 mm | - | - | - |
| 1777708686 | 26.11° C | 45% | 1007.1 hPa | 0 mm | - | - | - |
| 1777707784 | 26.11° C | 46% | 1006.9 hPa | 0 mm | - | - | - |
| 1777706884 | 26.11° C | 45% | 1006.6 hPa | 0 mm | - | - | - |
| 1777705985 | 26.67° C | 45% | 1006.3 hPa | 0 mm | - | - | - |
| 1777705085 | 26.67° C | 43% | 1006.3 hPa | 0 mm | - | - | - |
| 1777704184 | 26.67° C | 46% | 1006.1 hPa | 0 mm | - | - | - |
| 1777703285 | 27.22° C | 45% | 1005.9 hPa | 0 mm | - | - | - |
| 1777702385 | 27.78° C | 44% | 1005.6 hPa | 0 mm | - | - | - |
| 1777701486 | 28.33° C | 44% | 1005.4 hPa | 0 mm | - | - | - |
| 1777700585 | 28.89° C | 42% | 1005.3 hPa | 0 mm | - | - | - |
| 1777699685 | 28.33° C | 34% | 1005.2 hPa | 0 mm | - | - | - |
| 1777698784 | 28.33° C | 36% | 1005 hPa | 0 mm | - | - | - |
| 1777697884 | 27.78° C | 34% | 1005 hPa | 0 mm | - | - | - |
| 1777696985 | 27.78° C | 34% | 1004.9 hPa | 0 mm | - | - | - |
* Rain latest hour (hover to see other rain measurements)
** Current wind speed in m/s (hover to see current wind gust speed)